This is the latest recevied weather packets stored in our database for station/object ON3FV. If no packets are shown the sender has not sent any weather packets the latest 10 day(s).
| Time | Temp. | Humidity | Pressure | Rain* | Wind** | Luminosity | Snow |
|---|---|---|---|---|---|---|---|
| 1777459967 | 17.78° C | 45% | 1021.7 hPa | - | - | - | - |
| 1777458462 | 17.22° C | 47% | 1021.7 hPa | - | - | - | - |
| 1777457559 | 16.67° C | 46% | 1021.7 hPa | - | - | - | - |
| 1777457298 | 16.67° C | 46% | 1021.7 hPa | - | - | - | - |
| 1777456655 | 16.67° C | 49% | 1021.8 hPa | - | - | - | - |
| 1777454850 | 16.11° C | 48% | 1021.8 hPa | - | - | - | - |
| 1777454569 | 15.56° C | 48% | 1021.9 hPa | - | - | - | - |
| 1777451840 | 14.44° C | 49% | 1022 hPa | - | - | - | - |
| 1777450937 | 14.44° C | 49% | 1022.1 hPa | - | - | - | - |
| 1777449452 | 14.44° C | 51% | 1022 hPa | - | - | - | - |
| 1777448549 | 13.33° C | 52% | 1021.9 hPa | - | - | - | - |
| 1777447023 | 12.78° C | 54% | 1021.9 hPa | - | - | - | - |
| 1777446121 | 12.22° C | 54% | 1021.7 hPa | - | - | - | - |
| 1777443111 | 11.11° C | 55% | 1021.4 hPa | - | - | - | - |
| 1777442509 | 10.56° C | 56% | 1021.3 hPa | - | - | - | - |
| 1777442208 | 10.56° C | 56% | 1021.3 hPa | - | - | - | - |
| 1777441004 | 10° C | 57% | 1021.4 hPa | - | - | - | - |
| 1777438897 | 10° C | 56% | 1021.2 hPa | - | - | - | - |
| 1777438596 | 10° C | 56% | 1021.2 hPa | - | - | - | - |
| 1777438315 | 10° C | 56% | 1021.1 hPa | - | - | - | - |
| 1777437994 | 10° C | 56% | 1021.1 hPa | - | - | - | - |
| 1777437693 | 10° C | 56% | 1021.1 hPa | - | - | - | - |
| 1777435886 | 10° C | 56% | 1021 hPa | - | - | - | - |
| 1777435606 | 10° C | 56% | 1021 hPa | - | - | - | - |
| 1777435285 | 10° C | 56% | 1021 hPa | - | - | - | - |
* Rain since midnight (hover to see other rain measurements)
** Current wind speed in m/s (hover to see current wind gust speed)